Weather History for Fargo, ND

Change the Weather History Date:

Wednesday, January 9, 2013

  Actual Average Record
Temperature  
Mean Temperature 27 °F 9 °F  
Max Temperature 33 °F 18 °F 51 °F (2012)
Min Temperature 20 °F 0 °F -38 °F (1887)
Degree Days  
Heating Degree Days 38 56  
Month to date heating degree days 447 500  
Since 1 July heating degree days 3907 4040  
Cooling Degree Days 0 0  
Month to date cooling degree days 0 0  
Year to date cooling degree days 0 0  
Moisture  
Dew Point 18 °F    
Average Humidity 70    
Maximum Humidity 77    
Minimum Humidity 63    
Precipitation  
Precipitation 0.00 in 0.03 in 0.25 in (1939)
Month to date precipitation 0.02 0.23  
Year to date precipitation 0.02 0.23  
Snow  
Snow 0.00 in 0.40 in 4.50 in (1997)
Month to date snowfall 0.2 3.5  
Since 1 July snowfall 13.7 23.3  
Snow Depth 3.00 in    
Sea Level Pressure  
Sea Level Pressure 30.12 in    
Wind  
Wind Speed 15 mph (SW)    
Max Wind Speed 33 mph    
Max Gust Speed 39 mph    
Visibility 10 miles    
Events Snow    
T = Trace of Precipitation, MM = Missing Value Source: NWS Daily Summary

Daily Weather History Graph

Daily Weather History Graph

Search for Another Location

Airport:

Trip Planner

Search our weather history database for the weather conditions in past years. The results will help you decide how hot, cold, wet, or windy it might be!

Date:

Astronomy

Jan. 09, 2013 Rise Set
Actual Time 8:11 AM CST 4:58 PM CST
Civil Twilight 7:36 AM CST 5:32 PM CST
Nautical Twilight 6:58 AM CST 6:11 PM CST
Astronomical Twilight 6:21 AM CST 6:47 PM CST
Moon 5:52 AM CST (1/9) 3:00 PM CST (1/9)
Length of Visible Light 9h 56m
Length of Day
8h 47m
Waning Crescent, 6% of the Moon is Illuminated
Jan 9
Waning Crescent
Jan 11
New
Jan 18
First Quarter
Jan 26
Full
Feb 3
Last Quarter

Hourly Weather History & Observations

Time (CST) Temp. Windchill Dew Point Humidity Pressure Visibility Wind Dir Wind Speed Gust Speed Precip Events Conditions
12:53 AM 32.0 °F 18.9 °F 23.0 °F 69% 29.85 in 10.0 mi West 24.2 mph 31.1 mph N/A   Partly Cloudy
1:53 AM 30.0 °F 16.0 °F 21.0 °F 69% 29.88 in 9.0 mi WNW 25.3 mph 35.7 mph 0.00 in Snow Light Snow
2:53 AM 28.0 °F 13.9 °F 19.9 °F 72% 29.92 in 9.0 mi WNW 23.0 mph 34.5 mph 0.00 in   Clear
3:53 AM 26.1 °F 12.7 °F 18.0 °F 71% 29.98 in 10.0 mi West 18.4 mph - 0.00 in   Clear
4:53 AM 25.0 °F 10.2 °F 17.1 °F 72% 30.01 in 10.0 mi West 21.9 mph - 0.00 in   Clear
5:53 AM 24.8 °F 12.4 °F 15.8 °F 69% 30.03 in 10.0 mi West 15.0 mph - N/A   Clear
6:53 AM 21.9 °F 9.2 °F 15.1 °F 75% 30.12 in 10.0 mi West 13.8 mph - N/A   Clear
7:53 AM 21.0 °F 8.1 °F 14.0 °F 74% 30.16 in 10.0 mi West 13.8 mph - N/A   Clear
8:53 AM 19.9 °F 7.9 °F 12.9 °F 74% 30.20 in 10.0 mi WNW 11.5 mph - N/A   Clear
9:53 AM 19.9 °F 9.3 °F 12.9 °F 74% 30.22 in 10.0 mi West 9.2 mph - N/A   Clear
10:53 AM 23.0 °F 14.7 °F 15.8 °F 74% 30.18 in 10.0 mi WNW 6.9 mph - N/A   Clear
11:53 AM 25.0 °F 17.1 °F 16.0 °F 69% 30.22 in 10.0 mi West 6.9 mph - N/A   Clear
12:53 PM 26.1 °F 20.5 °F 17.1 °F 69% 30.22 in 10.0 mi West 4.6 mph - N/A   Clear
1:53 PM 26.1 °F 20.5 °F 17.1 °F 69% 30.24 in 10.0 mi South 4.6 mph - N/A   Overcast
2:53 PM 27.0 °F 15.6 °F 18.0 °F 69% 30.27 in 10.0 mi South 13.8 mph - N/A   Overcast
3:53 PM 28.0 °F 19.3 °F 18.0 °F 66% 30.27 in 10.0 mi South 9.2 mph - N/A   Overcast
4:53 PM 28.0 °F 17.5 °F 19.0 °F 69% 30.24 in 10.0 mi SSE 12.7 mph - N/A   Partly Cloudy
5:53 PM 26.1 °F 14.5 °F 18.0 °F 71% 30.20 in 10.0 mi SSE 13.8 mph - N/A   Clear
6:53 PM 27.0 °F 14.3 °F 18.0 °F 69% 30.17 in 10.0 mi SSE 17.3 mph 24.2 mph N/A   Clear
7:53 PM 27.0 °F 14.3 °F 18.0 °F 69% 30.14 in 10.0 mi SSE 17.3 mph 24.2 mph N/A   Clear
8:53 PM 27.0 °F 13.2 °F 18.0 °F 69% 30.11 in 10.0 mi SSE 20.7 mph 27.6 mph N/A   Clear
9:53 PM 28.0 °F 14.3 °F 19.0 °F 69% 30.10 in 10.0 mi South 21.9 mph 32.2 mph N/A   Clear
10:53 PM 28.0 °F 16.1 °F 19.9 °F 72% 30.08 in 10.0 mi SSE 16.1 mph 24.2 mph N/A   Clear
11:53 PM 28.9 °F 16.1 °F 21.0 °F 72% 30.06 in 10.0 mi SSE 19.6 mph 25.3 mph N/A   Clear